GW5874 Weather Reports


time (UTC)temp
F
wind
direction
speed
knots
gust
knots
rain 1hr
in
rain 24hr
in
rain mn
in
humidity
%
barometer
mb
20260510234346 61 264 0.9 2.6 0.00 0.00 0.00 73 1019.8
20260510233842 62 227 1.7 2.6 0.00 0.00 0.00 72 1020.0
20260510233339 62 254 0.0 0.0 0.00 0.00 0.00 78 1019.9
20260510232835 62 254 0.0 0.0 0.00 0.00 0.00 72 1019.9
20260510232331 61 253 0.0 0.0 0.00 0.00 0.00 76 1019.7
20260510231827 62 230 0.0 0.0 0.00 0.00 0.00 81 1019.5
20260510231325 62 110 0.0 0.9 0.00 0.00 0.00 74 1019.6
20260510230821 62 232 0.9 3.5 0.00 0.00 0.00 74 1019.6
20260510230317 62 289 0.0 0.0 0.00 0.00 0.00 79 1019.9
20260510225814 62 280 0.0 0.0 0.00 0.00 0.00 80 1019.5
20260510225309 62 280 0.0 0.0 0.00 0.00 0.00 79 1019.8
20260510224806 62 282 0.0 0.0 0.00 0.00 0.00 78 1019.7
20260510224302 62 282 0.0 0.0 0.00 0.00 0.00 76 1019.8
20260510223759 62 284 0.0 0.0 0.00 0.00 0.00 73 1019.9
20260510223256 63 285 0.0 0.0 0.00 0.00 0.00 73 1019.9
20260510222754 63 285 0.0 0.0 0.00 0.00 0.00 71 1020.0
20260510222251 63 291 0.0 0.0 0.00 0.00 0.00 70 1019.6
20260510221746 63 291 0.0 0.0 0.00 0.00 0.00 67 1019.6
20260510221243 64 319 0.0 0.9 0.00 0.00 0.00 70 1019.8
20260510220739 64 276 0.0 0.0 0.00 0.00 0.00 67 1019.6
20260510220235 64 267 0.0 0.9 0.00 0.00 0.00 65 1019.5
20260510215732 65 277 0.0 0.0 0.00 0.00 0.00 63 1019.5
20260510215230 64 277 0.0 0.9 0.00 0.00 0.00 62 1019.2
20260510214726 64 256 0.9 0.9 0.00 0.00 0.00 66 1019.2
20260510214224 64 219 0.9 0.9 0.00 0.00 0.00 68 1019.0
20260510213721 64 258 0.9 0.9 0.00 0.00 0.00 72 1019.0
20260510213217 64 238 0.0 0.9 0.00 0.00 0.00 68 1018.9
20260510212713 65 287 0.0 0.9 0.00 0.00 0.00 64 1018.9
20260510212211 66 290 0.9 0.9 0.00 0.00 0.00 63 1019.0
20260510211707 66 260 0.0 0.0 0.00 0.00 0.00 60 1019.0
20260510211202 66 286 0.0 0.0 0.00 0.00 0.00 58 1019.2
20260510210659 66 291 0.0 0.0 0.00 0.00 0.00 59 1019.2
20260510210154 66 278 0.0 0.0 0.00 0.00 0.00 60 1019.3
20260510205653 67 308 0.0 0.0 0.00 0.00 0.00 63 1019.3
20260510205149 67 338 0.9 0.9 0.00 0.00 0.00 60 1019.5
20260510204645 67 347 0.9 0.9 0.00 0.00 0.00 60 1019.3
20260510204142 68 14 1.7 2.6 0.00 0.00 0.00 59 1019.2
20260510203639 68 12 0.9 0.9 0.00 0.00 0.00 57 1019.3
20260510203137 68 256 0.0 0.0 0.00 0.00 0.00 58 1019.2
20260510202636 68 254 0.0 0.0 0.00 0.00 0.00 62 1019.3
20260510202132 68 259 0.0 0.9 0.00 0.00 0.00 60 1019.5
20260510201629 67 78 0.0 0.0 0.00 0.00 0.00 61 1019.2
20260510201126 67 265 1.7 2.6 0.00 0.00 0.00 61 1019.3
20260510200622 67 28 0.9 2.6 0.00 0.00 0.00 63 1019.2
20260510200120 67 93 2.6 3.5 0.00 0.00 0.00 63 1019.2
20260510195618 67 256 0.0 0.9 0.00 0.00 0.00 63 1019.2
20260510195114 66 298 3.5 4.3 0.00 0.00 0.00 64 1019.2
20260510194613 66 281 0.0 0.9 0.00 0.00 0.00 66 1019.2
20260510194110 66 250 0.0 0.0 0.00 0.00 0.00 74 1019.4
20260510193610 66 279 0.0 0.0 0.00 0.00 0.00 70 1019.7
20260510193106 66 109 0.9 0.9 0.00 0.00 0.00 68 1019.6
20260510192601 66 245 0.0 0.9 0.00 0.00 0.00 74 1019.5
20260510192057 66 298 0.0 0.0 0.00 0.00 0.00 69 1019.7
20260510191553 66 291 1.7 2.6 0.00 0.00 0.00 68 1019.5
20260510191050 66 71 1.7 3.5 0.00 0.00 0.00 66 1019.7
20260510190547 66 249 0.0 0.0 0.00 0.00 0.00 69 1019.5
20260510190045 67 217 0.0 0.0 0.00 0.00 0.00 69 1019.5
20260510185542 67 260 0.0 0.9 0.00 0.00 0.00 60 1019.4
20260510185039 67 270 0.9 0.9 0.00 0.00 0.00 59 1019.4
20260510184537 67 338 1.7 2.6 0.00 0.00 0.00 58 1019.2
20260510184031 68 274 1.7 2.6 0.00 0.00 0.00 60 1019.3
20260510183527 68 40 0.9 2.6 0.00 0.00 0.00 62 1019.2
20260510183023 68 330 2.6 3.5 0.00 0.00 0.00 58 1019.4
20260510182520 68 80 6.1 7.0 0.00 0.00 0.00 56 1019.3
20260510182020 69 79 0.0 0.9 0.00 0.00 0.00 61 1019.4
20260510181519 69 200 2.6 3.5 0.00 0.00 0.00 59 1019.3
20260510181014 69 152 0.9 0.9 0.00 0.00 0.00 59 1019.4
20260510180512 69 299 1.7 2.6 0.00 0.00 0.00 59 1019.3
20260510180009 69 159 0.9 0.9 0.00 0.00 0.00 61 1019.2
20260510175504 69 161 2.6 3.5 0.00 0.00 0.00 60 1018.9
20260510175000 69 157 4.3 6.1 0.00 0.00 0.00 60 1018.8
20260510174458 68 347 1.7 2.6 0.00 0.00 0.00 64 1018.7
20260510173955 68 189 3.5 4.3 0.00 0.00 0.00 63 1018.9
20260510173451 68 68 2.6 3.5 0.00 0.00 0.00 62 1018.9
20260510172947 69 59 2.6 3.5 0.00 0.00 0.00 64 1018.8
20260510172443 69 81 2.6 3.5 0.00 0.00 0.00 61 1018.7
20260510171940 69 259 2.6 3.5 0.00 0.00 0.00 61 1018.9
20260510171437 68 256 1.7 2.6 0.00 0.00 0.00 63 1018.6
20260510170933 68 346 3.5 4.3 0.00 0.00 0.00 62 1019.0
20260510170430 68 273 0.9 0.9 0.00 0.00 0.00 65 1018.7
20260510165925 68 82 3.5 6.1 0.00 0.00 0.00 64 1018.8
20260510165422 68 225 1.7 2.6 0.00 0.00 0.00 66 1018.7
20260510164919 69 306 0.9 2.6 0.00 0.00 0.00 66 1018.7
20260510164416 68 83 1.7 2.6 0.00 0.00 0.00 69 1018.9
20260510163911 68 244 2.6 3.5 0.00 0.00 0.00 68 1018.5
20260510163408 68 107 8.7 13.9 0.00 0.00 0.00 68 1018.4
20260510162907 68 310 4.3 6.1 0.00 0.00 0.00 68 1018.6
20260510162405 67 261 0.0 0.9 0.00 0.00 0.00 70 1018.4
20260510161901 67 82 0.9 2.6 0.00 0.00 0.00 72 1018.4
20260510161356 66 23 2.6 4.3 0.00 0.00 0.00 71 1018.2
20260510160854 66 268 0.0 0.9 0.00 0.00 0.00 72 1017.9
20260510160351 65 341 1.7 3.5 0.00 0.00 0.00 72 1018.1
20260510155849 65 73 0.9 2.6 0.00 0.00 0.00 72 1018.2
20260510155347 66 62 1.7 2.6 0.00 0.00 0.00 72 1018.1
20260510154843 66 160 1.7 2.6 0.00 0.00 0.00 72 1017.9
20260510154339 66 190 0.0 0.9 0.00 0.00 0.00 73 1017.7
20260510153833 66 230 0.0 0.9 0.00 0.00 0.00 73 1017.6
20260510153329 65 67 4.3 7.0 0.00 0.00 0.00 71 1017.5
20260510152826 65 309 1.7 2.6 0.00 0.00 0.00 74 1017.4
20260510152323 65 236 1.7 2.6 0.00 0.00 0.00 73 1017.2
20260510151820 66 115 3.5 4.3 0.00 0.00 0.00 72 1017.4
20260510151318 66 306 2.6 3.5 0.00 0.00 0.00 72 1017.2
20260510150814 66 118 3.5 4.3 0.00 0.00 0.00 73 1017.2
20260510150309 66 301 4.3 7.0 0.00 0.00 0.00 73 1017.1
20260510145806 66 167 1.7 3.5 0.00 0.00 0.00 73 1017.2
20260510145305 66 228 4.3 6.1 0.00 0.00 0.00 74 1017.1
20260510144759 65 273 0.9 0.9 0.00 0.00 0.00 75 1017.1
20260510144256 65 306 0.0 0.0 0.00 0.00 0.00 78 1017.0
20260510143755 65 231 0.0 0.9 0.00 0.00 0.00 79 1017.3
20260510143251 65 283 0.0 0.9 0.00 0.00 0.00 77 1017.4
20260510142748 65 1 0.0 0.0 0.00 0.00 0.00 77 1017.6
20260510142245 65 302 0.9 0.9 0.00 0.00 0.00 78 1017.5
20260510141742 65 273 0.0 0.0 0.00 0.00 0.00 76 1017.5
20260510141240 65 242 0.0 0.9 0.00 0.00 0.00 77 1017.5
20260510140737 66 98 0.0 0.0 0.00 0.00 0.00 77 1017.4
20260510140232 65 260 0.0 0.0 0.00 0.00 0.00 76 1017.2
20260510135732 65 285 0.0 0.0 0.00 0.00 0.00 78 1017.4
20260510135227 65 257 0.0 0.0 0.00 0.00 0.00 77 1017.4
20260510134725 65 245 0.0 0.0 0.00 0.00 0.00 78 1017.3
20260510134222 65 320 1.7 2.6 0.00 0.00 0.00 77 1017.0
20260510133718 65 241 0.0 0.0 0.00 0.00 0.00 76 1017.0
20260510133214 65 332 0.0 0.9 0.00 0.00 0.00 77 1017.0
20260510132710 65 280 2.6 3.5 0.00 0.00 0.00 76 1017.0
20260510132208 65 331 0.0 0.0 0.00 0.00 0.00 78 1016.9
20260510131705 66 258 0.0 0.0 0.00 0.00 0.00 77 1016.8
20260510131203 66 276 0.9 0.9 0.00 0.00 0.00 77 1016.7
20260510130659 66 285 0.0 0.0 0.00 0.00 0.00 79 1016.5
20260510130156 65 231 0.0 0.0 0.00 0.00 0.00 83 1016.3
20260510125652 62 296 0.0 0.0 0.00 0.00 0.00 86 1016.1
20260510125148 61 313 0.0 0.0 0.00 0.00 0.00 89 1015.9
20260510124646 60 132 0.0 0.0 0.00 0.00 0.00 90 1015.8
20260510124142 60 114 0.9 0.9 0.00 0.00 0.00 91 1015.8
20260510123637 59 115 0.0 0.0 0.00 0.00 0.00 95 1015.7
20260510123134 59 281 0.0 0.0 0.00 0.00 0.00 97 1015.7
20260510122630 58 280 0.0 0.0 0.00 0.00 0.00 97 1015.7
20260510122126 56 280 0.0 0.0 0.00 0.00 0.00 97 1015.7
20260510121623 55 281 0.0 0.0 0.00 0.00 0.00 97 1015.5
20260510121120 55 281 0.0 0.0 0.00 0.00 0.00 96 1015.4
20260510120618 55 263 0.0 0.0 0.00 0.00 0.00 96 1015.5
20260510120113 55 309 0.0 0.9 0.00 0.00 0.00 96 1015.4
20260510115610 55 241 0.0 0.0 0.00 0.00 0.00 96 1015.2
20260510115108 55 259 0.0 0.0 0.00 0.00 0.00 96 1015.2
20260510114603 55 313 0.9 0.9 0.00 0.00 0.00 96 1015.1
20260510114100 54 255 0.0 0.0 0.00 0.00 0.00 96 1014.8
20260510113554 54 254 0.0 0.0 0.00 0.00 0.00 96 1014.9
20260510113053 55 255 0.0 0.0 0.00 0.00 0.00 95 1014.5
20260510112549 55 211 0.0 0.0 0.00 0.00 0.00 95 1014.5
20260510112045 55 337 0.9 0.9 0.00 0.00 0.00 95 1014.6
20260510111542 55 268 0.0 0.9 0.00 0.00 0.00 95 1014.5
20260510111038 55 292 0.0 0.0 0.00 0.00 0.00 95 1014.6
20260510110534 55 244 0.0 0.0 0.00 0.00 0.00 94 1014.4
20260510110031 55 253 0.0 0.0 0.00 0.00 0.00 94 1014.4
20260510105526 56 254 0.0 0.0 0.00 0.00 0.00 94 1014.5
20260510105021 56 277 0.0 0.9 0.00 0.00 0.00 94 1014.6
20260510104518 55 277 0.0 0.0 0.00 0.00 0.00 94 1014.7
20260510104014 56 276 0.0 0.0 0.00 0.00 0.00 94 1014.5
20260510103512 56 276 0.0 0.0 0.00 0.00 0.00 93 1014.4
20260510103008 56 213 0.9 0.9 0.00 0.00 0.00 93 1014.4
20260510102504 56 248 0.0 0.9 0.00 0.00 0.00 93 1014.6
20260510102000 56 324 0.9 0.9 0.00 0.00 0.00 93 1014.3
20260510101458 57 281 0.0 0.0 0.00 0.00 0.00 92 1014.4
20260510100956 57 276 0.0 0.9 0.00 0.00 0.00 92 1014.4
20260510100452 57 301 0.0 0.0 0.00 0.00 0.00 92 1014.5
20260510095948 57 300 0.0 0.0 0.00 0.00 0.00 91 1014.6
20260510095444 57 250 0.0 0.0 0.00 0.00 0.00 90 1014.4
20260510094943 58 334 0.9 0.9 0.00 0.00 0.00 89 1014.2
20260510094438 58 328 0.9 0.9 0.00 0.00 0.00 89 1014.5
20260510093934 58 299 0.0 0.0 0.00 0.00 0.00 88 1014.4
20260510093430 59 227 0.0 0.0 0.00 0.00 0.00 88 1014.4
20260510092927 59 293 0.0 0.9 0.00 0.00 0.00 87 1014.2
20260510092425 59 271 0.0 0.0 0.00 0.00 0.00 87 1014.2
20260510091924 59 247 0.0 0.0 0.00 0.00 0.00 86 1014.1
20260510091421 59 237 0.9 0.9 0.00 0.00 0.00 86 1013.8
20260510090918 59 168 0.0 0.9 0.00 0.00 0.00 87 1013.9
20260510090414 60 244 0.0 0.0 0.00 0.00 0.00 86 1013.8
20260510085910 59 281 0.0 0.0 0.00 0.00 0.00 85 1013.5
20260510085405 58 296 0.0 0.9 0.00 0.00 0.00 91 1013.4
20260510084900 57 227 0.0 0.0 0.00 0.00 0.00 92 1013.2
20260510084359 58 227 0.0 0.0 0.00 0.00 0.00 93 1013.4
20260510083855 58 77 0.0 0.0 0.00 0.00 0.00 94 1013.4
20260510083352 58 259 0.0 0.0 0.00 0.00 0.00 94 1013.3
20260510082847 57 322 0.9 0.9 0.00 0.00 0.00 95 1013.2
20260510082345 57 306 1.7 2.6 0.00 0.00 0.00 95 1013.2
20260510081844 57 266 0.0 0.0 0.00 0.00 0.00 95 1013.0
20260510081340 57 262 0.0 0.0 0.00 0.00 0.00 95 1013.2
20260510080837 57 237 0.0 0.0 0.00 0.00 0.00 95 1012.7
20260510080330 57 217 0.0 0.0 0.00 0.00 0.00 95 1012.5
20260510075828 57 272 0.0 0.0 0.00 0.00 0.00 95 1012.2
20260510075325 57 276 0.0 0.0 0.00 0.00 0.00 94 1012.4
20260510074822 57 276 0.0 0.0 0.00 0.00 0.00 94 1012.2
20260510074319 57 248 0.0 0.0 0.00 0.00 0.00 94 1012.4
20260510073815 57 247 0.0 0.0 0.00 0.00 0.00 94 1012.4
20260510073311 58 319 0.0 0.0 0.00 0.00 0.00 94 1012.3
20260510072807 58 319 0.9 0.9 0.00 0.00 0.00 94 1012.6
20260510072306 58 320 0.9 0.9 0.00 0.00 0.00 94 1012.6
20260510071800 57 318 1.7 2.6 0.00 0.00 0.00 95 1012.5
20260510071257 57 267 0.0 0.0 0.00 0.00 0.00 95 1012.5
20260510070756 57 246 0.0 0.0 0.00 0.00 0.00 94 1012.4
20260510070253 57 258 0.9 0.9 0.00 0.00 0.00 94 1012.3
20260510065752 57 270 0.9 0.9 0.00 0.00 0.00 94 1012.4
20260510065249 57 263 0.0 0.0 0.00 0.00 0.00 94 1012.3
20260510064746 57 230 0.0 0.0 0.00 0.00 0.00 94 1012.5
20260510064244 57 230 0.0 0.0 0.00 0.00 0.00 94 1012.8
20260510063739 57 230 0.0 0.0 0.00 0.00 0.00 94 1012.7
20260510063236 57 230 0.0 0.0 0.00 0.00 0.00 94 1013.2
20260510062732 57 230 0.0 0.0 0.00 0.00 0.00 94 1013.1
20260510062229 57 230 0.0 0.0 0.00 0.00 0.00 94 1013.3
20260510061724 57 230 0.0 0.9 0.00 0.00 0.00 94 1013.5
20260510061222 57 263 0.0 0.0 0.00 0.00 0.00 94 1013.3
20260510060718 57 263 0.0 0.0 0.00 0.00 0.00 94 1013.4
20260510060214 57 262 0.0 0.0 0.00 0.00 0.00 94 1013.3
20260510055711 57 262 0.0 0.0 0.00 0.00 0.00 94 1013.4
20260510055209 57 262 0.0 0.0 0.00 0.00 0.00 94 1013.4
20260510054704 57 262 0.0 0.0 0.00 0.00 0.00 94 1013.5
20260510054200 57 279 0.0 0.0 0.00 0.00 0.00 94 1013.6
20260510053700 57 293 0.9 0.9 0.00 0.00 0.00 94 1013.5
20260510053157 57 231 0.0 0.0 0.00 0.00 0.00 94 1013.7
20260510052652 57 231 0.0 0.0 0.00 0.00 0.00 94 1013.5
20260510052148 57 230 0.0 0.0 0.00 0.00 0.00 93 1013.7
20260510051644 57 231 0.0 0.0 0.00 0.00 0.00 93 1013.7
20260510051141 57 234 0.0 0.0 0.00 0.00 0.00 93 1013.5
20260510050638 57 250 0.0 0.0 0.00 0.00 0.00 93 1013.3
20260510050136 57 264 0.0 0.0 0.00 0.00 0.00 92 1013.5
20260510045632 57 247 0.0 0.0 0.00 0.00 0.00 92 1013.3
20260510045129 57 286 0.0 0.0 0.00 0.00 0.00 92 1013.2
20260510044625 57 282 0.0 0.0 0.00 0.00 0.00 92 1013.3
20260510044122 57 278 0.9 0.9 0.00 0.00 0.00 92 1013.0
20260510043618 57 262 0.0 0.0 0.00 0.00 0.00 92 1013.1
20260510043115 57 261 0.0 0.0 0.00 0.00 0.00 92 1013.2
20260510042613 57 299 0.0 0.0 0.00 0.00 0.00 91 1013.3
20260510042108 57 263 0.0 0.0 0.00 0.00 0.00 91 1012.8
20260510041605 57 263 0.0 0.0 0.00 0.00 0.00 91 1013.1
20260510041103 57 263 0.0 0.0 0.00 0.00 0.00 91 1012.8
20260510040600 57 305 0.0 0.0 0.00 0.00 0.00 91 1012.8
20260510040055 57 257 0.0 0.0 0.00 0.00 0.00 91 1013.1
20260510035552 57 292 0.0 0.0 0.00 0.00 0.00 91 1013.0
20260510035051 57 301 0.0 0.0 0.00 0.00 0.00 91 1012.5
20260510034550 57 244 0.0 0.0 0.00 0.00 0.00 91 1013.0
20260510034046 57 244 0.0 0.0 0.00 0.00 0.00 91 1012.6
20260510033542 57 244 0.0 0.0 0.00 0.00 0.00 91 1012.5
20260510033041 57 245 0.0 0.0 0.00 0.00 0.00 90 1012.3
20260510032537 57 245 0.0 0.0 0.00 0.00 0.00 89 1012.4
20260510032032 57 245 0.0 0.0 0.00 0.00 0.00 89 1012.2
20260510031527 57 244 0.0 0.0 0.00 0.00 0.00 88 1012.2
20260510031023 58 244 0.0 0.0 0.00 0.00 0.00 88 1012.1
20260510030519 58 215 0.0 0.0 0.00 0.00 0.00 88 1012.2
20260510030017 58 217 0.0 0.0 0.00 0.00 0.00 88 1012.0
20260510025513 59 255 0.0 0.0 0.00 0.00 0.00 89 1011.9
20260510025011 59 255 0.0 0.0 0.00 0.00 0.00 89 1011.9
20260510024508 59 255 0.0 0.0 0.00 0.00 0.00 89 1011.9
20260510024004 59 255 0.0 0.0 0.00 0.00 0.00 88 1011.8
20260510023500 59 255 0.0 0.0 0.00 0.00 0.00 88 1011.8
20260510022957 60 255 0.0 0.0 0.00 0.00 0.00 88 1011.6
20260510022456 60 255 0.0 0.0 0.00 0.00 0.00 88 1011.6
20260510021955 60 255 0.0 0.0 0.00 0.00 0.00 87 1011.3
20260510021453 60 255 0.0 0.0 0.00 0.00 0.00 87 1011.2
20260510020950 61 255 0.0 0.0 0.00 0.00 0.00 87 1011.0
20260510020444 61 255 0.0 0.0 0.00 0.00 0.00 86 1011.1
20260510015940 62 255 0.0 0.0 0.00 0.00 0.00 86 1010.8
20260510015436 62 255 0.0 0.0 0.00 0.00 0.00 85 1010.8
20260510014931 62 255 0.0 0.0 0.00 0.00 0.00 85 1010.8
20260510014429 63 254 0.0 0.0 0.00 0.00 0.00 85 1010.5
20260510013926 63 255 0.0 0.0 0.00 0.00 0.00 84 1010.4
20260510013420 64 255 0.0 0.0 0.00 0.00 0.00 82 1010.4
20260510012916 64 255 0.0 0.0 0.00 0.00 0.00 81 1010.3
20260510012411 65 255 0.0 0.0 0.00 0.00 0.00 80 1010.2
20260510011906 66 255 0.0 0.0 0.00 0.00 0.00 79 1010.1
20260510011401 66 255 0.0 0.0 0.00 0.00 0.00 77 1010.0
20260510010858 67 255 0.0 0.0 0.00 0.00 0.00 76 1009.7
20260510010355 68 255 0.0 0.0 0.00 0.00 0.00 74 1009.9
20260510005852 68 255 0.0 0.0 0.00 0.00 0.00 72 1009.6
20260510005348 69 256 0.0 0.0 0.00 0.00 0.00 71 1009.7
20260510004846 69 256 0.0 0.0 0.00 0.00 0.00 73 1009.7
20260510004343 70 255 0.0 0.0 0.00 0.00 0.00 72 1009.4
20260510003841 71 256 0.0 0.0 0.00 0.00 0.00 70 1009.7
20260510003338 72 255 0.0 0.0 0.00 0.00 0.00 67 1009.4
20260510002836 73 255 0.0 0.0 0.00 0.00 0.00 64 1009.5
20260510002333 73 274 0.0 0.0 0.00 0.00 0.00 60 1009.5
20260510001830 74 276 0.0 0.0 0.00 0.00 0.00 57 1009.4
20260510001328 75 276 0.0 0.0 0.00 0.00 0.00 55 1009.5
20260510000824 76 276 0.0 0.0 0.00 0.00 0.00 50 1009.4
20260510000322 76 276 0.0 0.0 0.00 0.00 0.00 48 1009.6
20260509235819 77 277 0.0 0.0 0.00 0.00 0.00 47 1009.4
20260509235315 78 278 0.9 0.9 0.00 0.00 0.00 45 1009.7
20260509234811 79 277 0.0 0.0 0.00 0.00 0.00 44 1009.6